If you wish to contribute or participate in the discussions about articles you are invited to join SKYbrary as a registered user

 Actions

Caen-Carpiquet Airport

From SKYbrary Wiki

LFRK
Airport
ICAO: LFRK – IATA: CFR
Summary
Name Caen-Carpiquet Airport
Region Europe
Territory France FR.gif
Location , Basse-Normandie
Serving Caen
Elevation 78.029 m
256 ft
256 ft78.029 m
Type medium airport
Coordinates 49° 10' 24.00" N, 0° 27' 0.00" W
Runways
Designator Length Width Surface ROPS
6/24 1180 m3,871.391 ft
30 m98.425 ft
ASP /
13/31 1900 m6,233.596 ft
45 m147.638 ft
ASP /


METAR
Observation LFRK 101700Z AUTO 20019KT 9999 SCT019 BKN038 BKN050 10/07 Q1014
Station Caen
Date/Time 10 December 2019 17:00:00
Wind direction 200°
Wind speed 19 kts
Lowest cloud amount scattered clouds
Temperature 10°C
Dew point 7°C
Humidity 81%
QNH 1014 hPa
Weather condition n/a